Location: Izdebno
(52.6670°N, 16.2170°E)
Time: 04:19:36
(UTC+02:00)

Transit 2A - Pass Details

Date: 25 February 2024
Orbit: 596 x 956 km, 66.7° (Epoch: 21 April)

Event Time Altitude Azimuth Distance (km) Brightness Sun altitude
Rises 04:19:38 0° 318° (NW) 2,973 - -23.7°
Reaches altitude 10° 04:21:53 10° 313° (NW) 2,101 - -23.4°
Maximum altitude 04:26:30 54° 238° (WSW) 871 - -22.7°
Exits shadow 04:27:08 50° 210° (SSW) 916 6.1 -22.6°
Drops below altitude 10° 04:31:35 10° 162° (SSE) 2,306 8.5 -21.9°
Sets 04:34:09 0° 158° (SSE) 3,291 9.4 -21.6°
